Time,TemperatureF,DewpointF,PressureIn,WindDirection,WindDirectionDegrees,WindSpeedMPH,WindSpeedGustMPH,Humidity,HourlyPrecipIn,Conditions,Clouds,dailyrainin,SolarRadiationWatts/m^2,SoftwareType,DateUTC
2013-05-08 00:00:00,40.0,27.0,-100.00,SSE,156,1.0,3.0,61,-99.99,,,0.00,0.000000,,2013-05-08 06:00:00,
2013-05-08 01:00:00,37.0,-99.9,-100.00,North,-999,-999.0,-999.0,-999,-99.99,,,0.00,,,2013-05-08 07:00:00,
2013-05-08 01:52:00,37.0,-99.9,-100.00,North,-999,-999.0,-999.0,-999,-99.99,,,0.00,,,2013-05-08 07:52:00,
2013-05-08 02:00:00,38.0,34.0,-100.00,NNE,25,0.0,4.0,87,-99.99,,,0.00,0.000000,,2013-05-08 08:00:00,
2013-05-08 03:00:00,37.0,35.0,-100.00,NNE,23,1.0,4.0,90,-99.99,,,0.00,0.000000,,2013-05-08 09:00:00,
2013-05-08 04:00:00,35.0,33.0,-100.00,ENE,65,0.0,2.0,92,-99.99,,,0.00,0.000000,,2013-05-08 10:00:00,
2013-05-08 05:00:00,37.0,34.0,-100.00,SSE,158,0.0,2.0,89,-99.99,,,-99.99,0.000000,,2013-05-08 11:00:00,
2013-05-08 06:00:00,35.0,32.0,-100.00,SSE,161,2.0,3.0,87,-99.99,,,-99.99,0.000000,,2013-05-08 12:00:00,
2013-05-08 07:00:00,35.0,33.0,-100.00,NW,318,0.0,2.0,93,-99.99,,,0.00,26.600000,,2013-05-08 13:00:00,
2013-05-08 08:00:00,42.0,38.0,-100.00,NE,37,1.0,3.0,86,-99.99,,,-99.99,153.199997,,2013-05-08 14:00:00,
2013-05-08 09:00:00,42.0,31.0,-100.00,NNW,347,1.0,6.0,64,-99.99,,,-99.99,222.500000,,2013-05-08 15:00:00,
2013-05-08 10:00:00,44.0,28.0,-100.00,North,1,2.0,7.0,53,-99.99,,,-99.99,319.299988,,2013-05-08 16:00:00,
2013-05-08 11:00:00,47.0,27.0,-100.00,North,357,2.0,6.0,44,-99.99,,,-99.99,462.200012,,2013-05-08 17:00:00,
2013-05-08 12:00:00,52.0,23.0,-100.00,North,353,2.0,7.0,33,-99.99,,,-99.99,791.200012,,2013-05-08 18:00:00,
2013-05-08 13:00:00,49.0,19.0,-100.00,North,4,2.0,7.0,30,-99.99,,,-99.99,866.599976,,2013-05-08 19:00:00,
2013-05-08 14:00:00,51.0,21.0,-100.00,North,3,2.0,8.0,31,-99.99,,,0.00,834.599976,,2013-05-08 20:00:00,
2013-05-08 15:00:00,50.0,19.0,-100.00,North,6,3.0,9.0,29,-99.99,,,0.00,703.900024,,2013-05-08 21:00:00,
2013-05-08 16:00:00,47.0,16.0,-100.00,NNE,24,2.0,8.0,29,-99.99,,,-99.99,403.899994,,2013-05-08 22:00:00,
2013-05-08 17:00:00,49.0,17.0,-100.00,North,7,2.0,9.0,28,-99.99,,,0.00,461.500000,,2013-05-08 23:00:00,
2013-05-08 17:42:00,49.0,17.0,-100.00,North,7,2.0,9.0,28,-99.99,,,0.00,461.500000,,2013-05-08 23:42:00,
2013-05-08 17:52:00,49.0,17.0,-100.00,North,7,2.0,9.0,28,-99.99,,,0.00,461.500000,,2013-05-08 23:52:00,
2013-05-08 18:00:00,49.0,14.0,-100.00,NNE,20,3.0,8.0,24,-99.99,,,0.00,251.199997,,2013-05-09 00:00:00,
2013-05-08 18:42:00,49.0,14.0,-100.00,NNE,20,3.0,8.0,24,-99.99,,,0.00,251.199997,,2013-05-09 00:42:00,
2013-05-08 18:52:00,49.0,14.0,-100.00,NNE,20,3.0,8.0,24,-99.99,,,0.00,251.199997,,2013-05-09 00:52:00,
2013-05-08 19:00:00,47.0,14.0,-100.00,NNE,21,3.0,6.0,26,-99.99,,,0.00,86.099998,,2013-05-09 01:00:00,
2013-05-08 19:42:00,47.0,14.0,-100.00,NNE,21,3.0,6.0,26,-99.99,,,0.00,86.099998,,2013-05-09 01:42:00,
2013-05-08 19:52:00,47.0,14.0,-100.00,NNE,21,3.0,6.0,26,-99.99,,,0.00,86.099998,,2013-05-09 01:52:00,
2013-05-08 20:00:00,43.0,13.0,-100.00,NNE,24,2.0,6.0,29,-99.99,,,0.00,24.400000,,2013-05-09 02:00:00,
2013-05-08 21:00:00,39.0,15.0,-100.00,SE,135,1.0,3.0,36,-99.99,,,0.00,0.000000,,2013-05-09 03:00:00,
2013-05-08 21:53:00,39.0,15.0,-100.00,SE,135,1.0,3.0,36,-99.99,,,0.00,0.000000,,2013-05-09 03:53:00,
2013-05-08 22:00:00,40.0,18.0,-100.00,SSE,149,1.0,4.0,40,-99.99,,,0.00,0.000000,,2013-05-09 04:00:00,
2013-05-08 23:00:00,37.0,18.0,-100.00,South,169,1.0,3.0,45,-99.99,,,0.00,0.000000,,2013-05-09 05:00:00,
2013-05-08 23:42:00,37.0,18.0,-100.00,South,169,1.0,3.0,45,-99.99,,,0.00,0.000000,,2013-05-09 05:42:00,
2013-05-08 23:52:00,37.0,18.0,-100.00,South,169,1.0,3.0,45,-99.99,,,0.00,0.000000,,2013-05-09 05:52:00,